MMS 4

operational
NORAD ID: 40485 Int'l Des: 2015-011 Owner: GSFC Country: US
HEOELLIPTICALHEO_ELLIPTICAL
追跡 地上

MMS 4について

説明を読み込み中...

リアルタイム位置

3D地球を読み込み中...

次回通過

高度履歴

Altitude vs Time

uPlot chart will show altitude changes over time

軌道要素

1 40485U 15011D 26073.33335648 -.00001969 00000-0 00000-0 0 9998
2 40485 70.7792 350.1305 8412909 165.3554 343.7712 0.28122913 1369
Epoch: Mar 14, 2026 • Age: 9 hours

現在のステータス

高度 54627.2 km
速度 3.00 km/s
衛星直下点 -59.12°S, 105.7°W
打ち上げ日 Mar 13, 2015
運用期間 11 years
タイプ other

技術仕様

分類 Payload
質量 1360.00 kg
乾燥質量 1000.00 kg
総質量 1360.00 kg
長さ 1.20 m
直径 3.60 m
スパン 112.00 m
形状 Cylinder+antennae
製造者 GSFC
バスタイプ MMS-SMART
フェーズステータス Deep Space
所有者/国 GSFC/US

大規模コンステレーション

Loading constellations...